Regional Weather Roundup
Issued by NWS

Home | Current Version | Previous Version | Graphics & Text | Print | Product List | Glossary On
Versions: 1 2 3 4 5 6 7 8 9 10 11 12 13 14 15 16 17 18 19 20 21 22 23 24 25 26 27 28 29 30 31 32 33 34 35 36 37 38 39 40 41 42 43 44 45 46 47 48 49 50
000
ASUS43 KTOP 200508
RWRKS

WEATHER ROUNDUP FOR KANSAS
NATIONAL WEATHER SERVICE GOODLAND KS
1200 AM CDT WED AUG 20 2014

NOTE:  "FAIR" INDICATES FEW OR NO CLOUDS BELOW 12,000 FEET WITH NO
SIGNIFICANT WEATHER AND/OR OBSTRUCTIONS TO VISIBILITY.

KSZ001>006-013>018-027>032-041>047-200600-
NORTHWEST KANSAS

CITY           SKY/WX    TMP DP  RH WIND       PRES   REMARKS
GOODLAND       CLOUDY    74  54  49 S9        29.86S
HAYS           CLEAR     77  61  57 S14       29.81S
HILL CITY      PTCLDY    79  62  56 S8        29.79R
RUSSELL        CLEAR     79  62  56 S13       29.80R
$$

KSZ061>065-074>080-084>089-200600-
SOUTHWEST KANSAS

CITY           SKY/WX    TMP DP  RH WIND       PRES   REMARKS
DODGE CITY     CLEAR     77  60  55 S12       29.86R
ELKHART          N/A     74  57  55 SE15        N/A
GARDEN CITY    CLEAR     73  61  65 S9        29.86R
GREAT BEND     CLEAR     75  61  60 S9        29.83R
LIBERAL        CLEAR     79  59  50 S15       29.89R
PRATT          CLEAR     79  59  50 S15       29.86S
$$

KSZ066>073-081>083-090>101-200600-
SOUTHEAST KANSAS

CITY           SKY/WX    TMP DP  RH WIND       PRES   REMARKS
CHANUTE        CLEAR     80  71  74 S12       29.86R
COFFEYVILLE    CLEAR     80  72  76 S8        29.86R
HUTCHINSON     PTCLDY    80  67  64 S12       29.84R
MEDICINE LODGE   N/A     79  63  57 S7        29.85R
NEWTON         PTCLDY    79  63  57 S15       29.88R
PARSONS        CLEAR     79  71  76 S5        29.87S
WICHITA INTL   PTCLDY    81  67  62 S12       29.84R
WICHITA JABRA  CLEAR     81  67  62 S14       29.84S
WICHITA MCCONL CLEAR     80  68  66 S15       29.85S
WINFIELD       CLEAR     80  69  69 S13       29.87R
$$

KSZ007>012-019>026-033>040-048>060-102>105-200600-
NORTHEAST KANSAS

CITY           SKY/WX    TMP DP  RH WIND       PRES   REMARKS
CONCORDIA      MOCLDY    80  68  66 S13       29.79S
EMPORIA        CLEAR     73  66  78 S8        29.84R
LAWRENCE       CLEAR     77  69  76 SE3       29.82R
MANHATTAN      PTCLDY    80  68  66 SW7       29.80R
MARYSVILLE     PTCLDY    75  68  78 SE5       29.80R
OLATHE IND     CLEAR     75  69  81 S6        29.84R
OLATHE EXE     CLEAR     79  69  71 S7        29.83R
SALINA         PTCLDY    80  67  64 S12       29.81R
TOPEKA BILLARD CLEAR     81  68  64 S5        29.81R
TOPEKA FORBES  CLEAR     78  67  68 S7        29.82R
$$


USA.gov is the U.S. government's official web portal to all federal, state and local government web resources and services.